TimeCST,TemperatureF,Dew PointF,Humidity,Sea Level PressureIn,VisibilityMPH,Wind Direction,Wind SpeedMPH,Gust SpeedMPH,PrecipitationIn,Events,Conditions,WindDirDegrees,DateUTC
12:00 AM,68,67,98,29.82,2,SE,2.3,,,,Mist,130,2013-09-18 06:00:00
12:00 AM,68.0,68.0,100,30.00,1.9,SE,2.3,-,N/A,,Mostly Cloudy,130,2013-09-18 06:00:00
1:00 AM,68.0,68.0,100,29.98,0.6,SSE,2.3,-,N/A,,Mostly Cloudy,160,2013-09-18 07:00:00
2:00 AM,68.0,68.0,100,29.95,0.6,Calm,Calm,-,N/A,,Mostly Cloudy,0,2013-09-18 08:00:00
3:00 AM,68,67,97,29.80,1,Calm,Calm,,,,Mist,,2013-09-18 09:00:00
3:00 AM,68.0,68.0,100,29.95,0.6,Calm,Calm,-,N/A,,Mostly Cloudy,0,2013-09-18 09:00:00
4:00 AM,68.0,68.0,100,29.95,0.6,North,2.3,-,N/A,,Mostly Cloudy,360,2013-09-18 10:00:00
5:00 AM,68.0,68.0,100,29.96,1.9,Calm,Calm,-,N/A,,Mostly Cloudy,0,2013-09-18 11:00:00
6:00 AM,68,67,97,29.83,,ESE,3.5,,,,Mist,110,2013-09-18 12:00:00
6:00 AM,68.0,68.0,100,29.98,3.1,ESE,3.5,-,N/A,,Mostly Cloudy,110,2013-09-18 12:00:00
7:00 AM,71.6,68.0,88,29.98,6.2,NNE,2.3,-,N/A,Fog,Mostly Cloudy,20,2013-09-18 13:00:00
8:00 AM,77.0,66.2,69,30.00,6.2,Calm,Calm,-,N/A,,Mostly Cloudy,0,2013-09-18 14:00:00
9:00 AM,82,67,51,29.82,12,SSW,2.3,,,,Haze,210,2013-09-18 15:00:00
9:00 AM,82.4,66.2,58,30.00,6.2,SSW,2.3,-,N/A,,Mostly Cloudy,210,2013-09-18 15:00:00
10:00 AM,78.8,68.0,69,30.00,6.2,WSW,8.1,-,N/A,,Mostly Cloudy,240,2013-09-18 16:00:00
11:00 AM,80.6,68.0,65,29.99,6.2,SW,10.4,-,N/A,,Mostly Cloudy,230,2013-09-18 17:00:00
12:00 PM,79,68,62,29.81,9,West,10.4,,,,Mostly Cloudy,260,2013-09-18 18:00:00
12:00 PM,78.8,68.0,69,29.97,6.2,West,10.4,-,N/A,,Mostly Cloudy,260,2013-09-18 18:00:00
12:45 PM,73.4,69.8,88,-9999,6.2,WSW,11.5,-,N/A,Rain-Thunderstorm,Thunderstorms and Rain,240,2013-09-18 18:45:00
1:00 PM,73.4,69.8,88,-9999,5.0,SW,8.1,-,N/A,Rain-Thunderstorm,Thunderstorms and Rain,230,2013-09-18 19:00:00
2:00 PM,73.4,69.8,88,29.94,5.0,WSW,9.2,-,N/A,,Drizzle,250,2013-09-18 20:00:00
3:00 PM,70,68,92,29.77,3,West,12.7,,,,Mist,260,2013-09-18 21:00:00
3:00 PM,69.8,68.0,94,29.92,3.1,West,12.7,-,N/A,Rain,Light Rain,260,2013-09-18 21:00:00
4:00 PM,68.0,68.0,100,-9999,3.1,West,6.9,-,N/A,Rain,Light Rain,260,2013-09-18 22:00:00
5:00 PM,68.0,66.2,94,-9999,3.1,North,9.2,-,N/A,Rain,Light Rain,360,2013-09-18 23:00:00
6:00 PM,68,66,92,29.86,3,NNE,6.9,,,,Mist,30,2013-09-19 00:00:00
6:00 PM,68.0,66.2,94,2.99,3.1,NNE,6.9,-,N/A,Rain,Rain,30,2013-09-19 00:00:00
7:00 PM,68.0,-9999,N/A,30.01,3.1,SW,3.5,-,N/A,Rain,Rain,230,2013-09-19 01:00:00
8:00 PM,68.0,66.2,94,30.04,5.0,SSW,2.3,-,N/A,Fog,Fog,200,2013-09-19 02:00:00
9:00 PM,67,66,97,29.92,1,West,4.6,,,Rain,Light Rain Showers,270,2013-09-19 03:00:00
9:00 PM,66.2,66.2,100,30.06,1.2,West,4.6,-,N/A,Rain,Rain,270,2013-09-19 03:00:00
10:00 PM,66.2,66.2,100,-9999,5.0,North,3.5,-,N/A,Fog,Light Drizzle,10,2013-09-19 04:00:00
11:00 PM,68.0,66.2,94,30.04,6.2,East,2.3,-,N/A,,Mostly Cloudy,80,2013-09-19 05:00:00